Regional Weather Roundup
Issued by NWS

Home | Current Version | Previous Version | Graphics & Text | Print | Product List | Glossary On
Versions: 1 2 3 4 5 6 7 8 9 10 11 12 13 14 15 16 17 18 19 20 21 22 23 24 25 26 27 28 29 30 31 32 33 34 35 36 37 38 39 40 41 42 43 44 45 46 47 48 49 50
000
ASUS43 KMPX 290810
RWRMN
WEATHER ROUNDUP FOR MINNESOTA
NATIONAL WEATHER SERVICE TWIN CITIES/CHANHASSEN MN
300 AM CDT MON AUG 29 2016


NOTE: "FAIR" INDICATES FEW OR NO CLOUDS BELOW 12,000 FEET WITH NO
SIGNIFICANT WEATHER AND/OR OBSTRUCTIONS TO VISIBILITY. N/A MEANS
CURRENT SKY AND/OR WEATHER CONDITIONS ARE NOT AVAILABLE.

MNZ060>063-068>070-290900-
   Twin Cities Metro

CITY           SKY/WX    TMP DP  RH WIND       PRES   REMARKS
TWIN CITIES    PTCLDY    72  68  87 SE7       30.12S
ST PAUL        CLEAR     70  68  93 SE3       30.13R
CRYSTAL        CLEAR     72  68  87 S6        30.10S
BLAINE         CLEAR     73  72  94 S7        30.12R
LAKEVILLE      CLEAR     70  70 100 S5        30.13S
EDEN PRAIRIE   CLEAR     74  70  87 S7        30.11S
LAKEVILLE      CLEAR     70  70 100 S5        30.13S
SOUTH ST PAUL  CLEAR     70  69  96 SE3       30.13R
LAKE ELMO      FAIR      70  68  94 S6        30.15R
$$
MNZ001>005-007-008-013>017-022>024-027-028-290900-
   Northwest Minnesota

CITY           SKY/WX    TMP DP  RH WIND       PRES   REMARKS
BEMIDJI        RAIN      65  65  97 S6        30.07R
HALLOCK        CLOUDY    66  64  94 S7        29.96R
ROSEAU         CLOUDY    66  61  82 S8        29.98F
WARROAD        CLOUDY    63  61  94 SE6       30.00F
THIEF RVR FALL CLOUDY    66  62  87 E3        30.02S
CROOKSTON      CLOUDY    70  64  83 SE3       30.00S
FOSSTON        CLOUDY    64  61  88 N7        30.05R THUNDER
DETROIT LAKES  CLOUDY    64  63  94 SE9       30.07R
MOORHEAD       CLOUDY    70  66  88 SE8       30.01R
PARK RAPIDS    LGT RAIN  64  61  90 SE12      30.10R
MAHNOMEN       FAIR      64  62  95 CALM      30.02F
$$
MNZ006-009>011-018-025>026-290900-
   North Central Minnesota

CITY           SKY/WX    TMP DP  RH WIND       PRES   REMARKS
BAUDETTE       CLOUDY    63  62  97 SE8       30.03R
FLAG ISLAND    CLOUDY    66  63  88 SE3       29.98F
INTL FALLS     LGT RAIN  63  61  93 SE13      30.06F
WASKISH        TSTM      63  61  94 E9G16     30.05R
BIG FORK       TSTM      63  61  94 S12G17    30.12S
LONGVILLE      TSTM      64  63  94 CALM      30.16R
GRAND RAPIDS   TSTM      64  61  90 N17G46    30.24R FOG
ORR            RAIN      63  61  94 CALM      30.09F
COOK           RAIN      63  63 100 E3        30.13F
WALKER         TSTM      63  62  96 SE8       30.12R
$$
MNZ012-019>021-037-290900-
   Northeast Minnesota

CITY           SKY/WX    TMP DP  RH WIND       PRES   REMARKS
DULUTH         CLOUDY    64  64 100 E5        30.14R FOG
ELY            TSTM      61  61 100 CALM      30.16F
HIBBING        TSTM      60  60 100 E7        30.15F VSB 1
DULUTH HARBOR  CLOUDY    66  64  94 N6        30.12F
TWO HARBORS    CLOUDY    64  59  82 NE6       30.13R HAZE
SILVER BAY     CLOUDY    63  63 100 CALM      30.15R FOG
GRAND MARAIS     N/A     66  62  87 NE5       30.15F
G MARAIS ARPRT CLOUDY    61  55  82 CALM      30.19S
$$
MNZ029>031-032-039>041-046>048-054>057-064-290900-
   West Central Minnesota

CITY           SKY/WX    TMP DP  RH WIND       PRES   REMARKS
FERGUS FALLS   CLOUDY    73  70  88 SE8       30.06R
WHEATON        CLEAR     75  72  88 S9        30.03S
MORRIS         CLEAR     72  72 100 S8        30.04S FOG
ALEXANDRIA     CLOUDY    73  69  87 S10       30.08S
ELBOW LAKE     MOCLDY    72  71  98 S10       30.04S
WADENA         CLOUDY    64  63  94 VRB16G22  30.12F
GLENWOOD       PTCLDY    72  70  94 S12G20    30.08S
APPLETON       CLEAR     73  70  88 S6        30.05S
BENSON         CLEAR     72  66  83 S5        30.07R
ORTONVILLE     MOCLDY    72  68  88 S7        30.04S
MADISON        CLEAR     70  68  94 S7        30.07S
WILLMAR        FAIR      72  68  88 S5        30.10S
$$
MNZ033>034-036-042>043-049>051-058-059-290900-
   Central Minnesota

CITY           SKY/WX    TMP DP  RH WIND       PRES   REMARKS
ST CLOUD       CLEAR     71  70  96 S7        30.10R
SAUK CENTRE    FAIR      69  68  96 SE5       30.09S
PAYNESVILLE    CLEAR     70  71 100 S7        30.10S
AITKIN         CLOUDY    73  66  78 W10       30.17R
PINE RIVER     TSTM      63  63 100 S7        30.16F
BRAINERD       LGT RAIN  70  59  68 N16       30.17R
STAPLES        TSTM      63  63 100 NE12G21   30.14F
LONG PRAIRIE   FAIR      70  68  94 E3        30.11R
LITTLE FALLS   CLOUDY    70  66  88 SE3       30.11R
LITCHFIELD     CLEAR     72  70  94 CALM      30.11S
BUFFALO        CLEAR     71  68  89 CALM      30.13R
MAPLE LAKE     CLEAR     71  70  96 CALM      30.13R
HUTCHINSON     CLOUDY    71  70  96 S6        30.12S
$$
MNZ037-044-045-052-053-290900-
   East Central Minnesota

CITY           SKY/WX    TMP DP  RH WIND       PRES   REMARKS
PRINCETON      CLEAR     70  66  88 SE3       30.12R
MORA           CLOUDY    64  64 100 CALM      30.14S
CAMBRIDGE      CLOUDY    72  66  83 CALM      30.11R
RUSH CITY      CLOUDY    68  66  94 SE3       30.13S
MOOSE LAKE     CLOUDY    68  64  88 S7        30.10F
HINCKLEY       FAIR      66  66 100 CALM      30.13S
CLOQUET        CLOUDY    64  63  94 CALM      30.13S FOG
MCGREGOR       CLOUDY    70  68  94 S10       30.13R
$$
MNZ071>073-080-081-089-090-097-098-290900-
   Southwest Minnesota

CITY           SKY/WX    TMP DP  RH WIND       PRES   REMARKS
MONTEVIDEO     CLEAR     72  70  94 SW7       30.10R
GRANITE FALLS  CLEAR     70  68  92 S9        30.10F
CANBY          CLEAR     74  66  76 SE6       30.08R
MARSHALL       CLEAR     69  66  90 S7        30.10R
REDWOOD FALLS  CLEAR     68  65  90 S9        30.11R
OLIVIA         CLEAR     70  66  88 SE7       30.11R
PIPESTONE      CLEAR     66  64  94 S6        30.13R
WINDOM         CLEAR     68  63  83 S6        30.14R
WORTHINGTON    CLEAR     64  63  96 S6        30.15S
JACKSON          N/A     66  63  88 S7        30.15S
TRACY          CLEAR     70  66  85 S5        30.11S
SLAYTON        CLEAR     66  64  94 S8        30.14R
$$
MNZ065>067-074>077-082>085-091>093-290900-
   South Central Minnesota

CITY           SKY/WX    TMP DP  RH WIND       PRES   REMARKS
MANKATO        CLEAR     70  64  83 S7        30.15R
NEW ULM          N/A     68  66  94 S6        30.12S
ST JAMES       CLEAR     63  61  94 S3        30.15R
FAIRMONT       CLEAR     65  63  93 S5        30.15R
GLENCOE        CLEAR     72  71  98 S3        30.12S
FARIBAULT      CLEAR     72  70  94 S3        30.16R
OWATONNA       CLEAR     72  70  94 S6        30.16R
WASECA         CLEAR     68  64  88 SE3       30.17R
ALBERT LEA     CLEAR     72  70  94 CALM      30.16R
$$
MNZ078>079-086>088-094>096-290900-
   Southeast Minnesota

CITY           SKY/WX    TMP DP  RH WIND       PRES   REMARKS
ROCHESTER      CLEAR     67  66  97 SE5       30.19R
RED WING       CLEAR     72  70  94 CALM      30.13S
STANTON        CLEAR     72  68  88 S3        30.13S
DODGE CENTER   CLEAR     66  64  94 S6        30.18R FOG
WINONA         CLEAR     70  68  94 CALM      30.18R
AUSTIN         CLEAR     70  66  88 CALM      30.18R FOG
PRESTON        CLEAR     66  64  93 S5        30.19R
$$
ABBREVIATIONS USED IN REMARKS
   TC - TEMPERATURES IN CELSIUS
  WCI - WIND CHILL INDEX
   HX - HEAT INDEX
  VSB - VISIBILITY
$$



USA.gov is the U.S. government's official web portal to all federal, state and local government web resources and services.